PST,Max TemperatureF,Mean TemperatureF,Min TemperatureF,Max Dew PointF,MeanDew PointF,Min DewpointF,Max Humidity, Mean Humidity, Min Humidity, Max Sea Level PressureIn, Mean Sea Level PressureIn, Min Sea Level PressureIn, Max VisibilityMiles, Mean VisibilityMiles, Min VisibilityMiles, Max Wind SpeedMPH, Mean Wind SpeedMPH, Max Gust SpeedMPH,PrecipitationIn, CloudCover, Events, WindDirDegrees
2013-12-1,81,62,42,42,33,23,70,41,12,30.21,30.15,30.10,10,10,10,9,4,12,0.00,0,,331
2013-12-2,76,56,36,43,34,24,70,44,17,30.10,29.98,29.81,10,10,10,8,2,10,0.00,0,,317
2013-12-3,73,57,40,46,41,34,83,55,27,29.80,29.70,29.60,10,10,10,9,2,12,0.00,0,,308
2013-12-4,66,61,56,45,27,14,60,40,19,29.96,29.84,29.62,10,10,5,28,10,38,0.00,1,,301
2013-12-5,60,45,30,29,22,15,61,41,20,30.11,30.02,29.96,10,10,10,10,4,13,0.00,1,,125
2013-12-6,59,44,28,30,27,23,78,54,30,30.20,30.12,30.08,10,10,10,10,4,13,0.00,0,,5
2013-12-7,65,47,29,39,32,24,85,59,32,30.07,29.96,29.85,10,10,6,29,5,37,0.00,1,,304
2013-12-8,60,46,31,33,27,16,75,52,28,30.22,30.12,30.01,10,10,10,10,3,14,0.00,2,,299
2013-12-9,58,44,29,16,5,-4,44,26,8,30.43,30.36,30.22,10,10,10,17,8,24,0.00,0,,349
2013-12-10,63,42,21,23,10,-2,47,28,8,30.39,30.26,30.16,10,10,10,7,3,8,0.00,0,,318
2013-12-11,68,48,27,25,16,4,59,34,9,30.25,30.19,30.16,10,10,2,7,2,10,0.00,0,,326
2013-12-12,72,55,37,39,29,17,52,36,19,30.22,30.14,30.07,10,10,7,14,5,17,T,3,Rain,324
2013-12-13,68,51,33,43,33,29,82,55,28,30.23,30.13,30.08,10,10,10,10,4,14,0.00,0,,265
2013-12-14,75,56,37,29,22,16,70,41,11,30.35,30.28,30.21,10,10,10,13,6,16,0.00,0,,349
2013-12-15,76,56,36,32,25,20,52,32,12,30.33,30.25,30.17,10,10,10,12,4,14,0.00,0,,325
2013-12-16,78,58,38,38,30,21,65,39,12,30.21,30.15,30.10,10,10,10,9,2,,0.00,0,,7
2013-12-17,78,59,40,37,33,29,62,40,18,30.18,30.09,30.01,10,10,10,7,2,10,0.00,0,,337
2013-12-18,75,62,48,40,33,24,61,39,16,29.99,29.87,29.74,10,10,10,8,2,9,0.00,0,,320
2013-12-19,70,55,39,45,37,32,70,51,32,29.73,29.68,29.62,10,10,10,14,5,17,0.00,1,Rain,321
2013-12-20,70,60,50,40,33,23,63,43,22,29.86,29.77,29.69,10,10,10,22,11,25,0.00,0,,318
2013-12-21,69,53,36,40,35,29,79,53,26,30.04,29.90,29.82,10,10,9,12,5,16,0.00,0,,216
2013-12-22,66,51,35,44,39,29,85,64,42,30.29,30.18,30.05,10,10,8,10,4,15,0.00,0,,349
2013-12-23,76,56,35,40,35,30,82,51,19,30.38,30.30,30.25,10,10,9,10,4,13,0.00,0,,341
2013-12-24,78,57,36,36,33,28,79,48,17,30.23,30.18,30.10,10,9,2,8,3,13,0.00,0,,337
2013-12-25,80,60,40,35,24,16,61,35,9,30.28,30.21,30.16,10,10,9,12,6,16,0.00,0,,330
2013-12-26,79,57,35,27,17,1,48,27,5,30.25,30.18,30.12,10,10,10,10,4,13,0.00,0,,322
2013-12-27,74,53,31,31,22,12,63,36,9,30.21,30.12,30.06,10,10,10,13,4,13,0.00,0,,313
2013-12-28,72,56,40,38,26,20,53,34,14,30.05,29.98,29.91,10,10,9,9,4,13,0.00,0,,330
2013-12-29,76,55,33,24,14,4,61,34,6,30.17,30.08,29.98,10,10,10,22,9,28,0.00,0,,323
2013-12-30,74,53,31,25,16,1,56,31,6,30.27,30.20,30.15,10,10,10,9,3,10,0.00,0,,348
2013-12-31,74,51,28,27,20,13,61,35,9,30.21,30.14,30.07,10,10,8,7,3,12,0.00,0,,353